{"data":{"norad_id":58370,"epoch":"2026-09-20T21:18:38.369376Z","epoch_age_seconds":110091,"freshness":"FRESH","line1":"1 58370U 23177V   26263.88794409 -.00009603  00000+0 -33955-3 0  9998","line2":"2 58370  43.0036 327.9458 0001468 279.1480  80.9205 15.27612937158099","mean_motion":15.27612937,"eccentricity":0.0001468,"inclination_deg":43.0036,"raan_deg":327.9458,"arg_perigee_deg":279.148,"mean_anomaly_deg":80.9205,"bstar":-0.00033955,"rev_number":15809,"period_min":94.2647162198,"perigee_km":481.94326494371,"apogee_km":483.95768022567,"semimajor_km":6861.0874725847,"source":"CELESTRAK","updated_at":"2026-09-21T09:00:33.863652Z"}}